Tracking 19245 objects as of 14-Aug-2018
HD Live streaming from Space Station
objects crossing your sky now

FENGYUN 1C DEB

Track FENGYUN 1C DEB now!
10-day predictions


NORAD ID: 30403
Int'l Code: 1999-025ADS
Perigee: 815.3 km
Apogee: 950.2 km
Inclination: 99.2 °
Period: 102.5 minutes
Semi major axis: 7253 km
RCS: 0.0223 m2 (small)
Launch date: May 10, 1999
Source: People's Republic of China (PRC)
Launch site: Taiyaun Space Center, China (TSC)

Note: This is SATELLITE DEBRIS
aabbcc
Your satellite tracking list
Your tracking list is empty




NASA's NSSDC Master Catalog

Two Line Element Set (TLE):
1 30403U 99025ADS 18225.48534755 +.00000498 +00000-0 +32362-3 0  9994
2 30403 099.1911 228.4726 0093013 315.6306 043.7433 14.05275991590914
Source of the keplerian elements: AFSPC